Content
SEND FEEDBACK

Daily
Averages
Monthly
Summary
United States of America

DEDEDO, GUAM


Home > North America > United States > Guam
Elevation: 111 meters     Latitude: 13 33N     Longitude: 144 49E

WEATHER
 
SELECT A DAY
Number of Records: 215,513;   Date Range: 1/1/95 - 12/17/14
 
SHARE

PRINT THIS DATA

[ ← Previous Day ]
WEATHER ALMANAC - 14 JUNE, 2013
[ Next Day → ]
[ °F ]   °C
Weather ElementAverageHighLow
Temperature28.6 °C31.1 °C (9:54 am)27 °C (10:28 am)
Dewpoint24.9 °C27 °C (10:39 am)23.3 °C (2:54 pm)
Humidity80.7 %89 % (12:50 am)69 % (2:54 pm)
Barometer1009.5 hPa1011.2 hPa (10:54 pm)1007.8 hPa (3:54 am)
Wind Speed16.1 km/h29.6 km/h (10:22 am)
Wind Gust40.7 km/h (11:54 am)
Weather ElementAverage
Visibility14.6 km
Wind DirectionE (94.4 °)

Weather ElementTotal
Precipitation13.97 mm
Cooling Degree Days10.7 (Base 18.3)
Growing Degree Days19.1 (Base 10)
Averaged from 43 records on 14 June, 2013
WEATHER CONDITIONS BREAKOUT
WIND DIRECTION BREAKOUT
WEATHER BY HOUR - 14 JUNE, 2013
[ °F ]   °C
Local TimeTemperatureDewpointHumidityBarometerVisibilityWind DirectionWind SpeedGust SpeedPrecipitationEventsConditions
12:26 AM28 °C25 °C84 %1009.8 hPa16.1 kmEast (100°)9.3 km/hOvercast
12:50 AM28 °C26 °C89 %1009.5 hPa16.1 kmEast (80°)7.4 km/hOvercast
12:54 AM28.3 °C25.6 °C85 %1008.8 hPa16.1 kmEast (80°)7.4 km/hOvercast
1:54 AM27.8 °C25 °C85 %1008.5 hPa16.1 kmEast (80°)7.4 km/hOvercast
2:04 AM28 °C25 °C84 %1009.1 hPa16.1 kmEast (80°)5.6 km/hOvercast
2:54 AM27.8 °C25 °C85 %1008.1 hPa16.1 kmEast (100°)7.4 km/hOvercast
3:06 AM28 °C25 °C84 %1008.8 hPa16.1 kmEast (90°)7.4 km/hPartly Cloudy
3:54 AM28.3 °C25 °C82 %1007.8 hPa16.1 kmEast (100°)11.1 km/hPartly Cloudy
4:33 AM28 °C25 °C84 %1008.5 hPa16.1 kmEast (90°)7.4 km/hScattered Clouds
4:42 AM28 °C25 °C84 %1008.5 hPa16.1 kmEast (80°)11.1 km/hMostly Cloudy
4:52 AM28 °C25 °C84 %1008.5 hPa16.1 kmEast (80°)13 km/hScattered Clouds
4:54 AM28.3 °C25 °C82 %1007.8 hPa16.1 kmEast (80°)11.1 km/hScattered Clouds
5:01 AM28 °C25 °C84 %1008.5 hPa16.1 kmEast (80°)9.3 km/hMostly Cloudy
5:54 AM27.8 °C25 °C85 %1008.5 hPa16.1 kmEast (90°)14.8 km/h0.51 mmScattered Clouds
6:54 AM28.3 °C25.6 °C85 %1009.1 hPa16.1 kmEast (90°)11.1 km/hPartly Cloudy
7:54 AM29.4 °C25.6 °C80 %1009.5 hPa16.1 kmEast (90°)14.8 km/hPartly Cloudy
8:54 AM30 °C25 °C74 %1009.8 hPa16.1 kmESE (110°)20.4 km/h35.2 km/h0 mmPartly Cloudy
9:54 AM31.1 °C25 °C70 %1009.5 hPa16.1 kmEast (90°)25.9 km/h38.9 km/hScattered Clouds
10:17 AM29 °C24 °C74 %1010.5 hPa9.7 kmEast (90°)27.8 km/h37 km/hHaze
10:22 AM28 °C24 °C79 %1010.8 hPa2.9 kmESE (110°)29.6 km/h38.9 km/h0.51 mmRainHeavy Rain
10:28 AM27 °C24 °C84 %1010.2 hPa4.8 kmEast (100°)16.7 km/h38.9 km/h3.56 mmRainHeavy Rain
10:39 AM29 °C27 °C89 %1010.2 hPa14.5 kmESE (110°)20.4 km/h37 km/h4.06 mmRainLight Rain
10:54 AM27.8 °C25 °C85 %1009.8 hPa9.7 kmESE (110°)24.1 km/h37 km/h4.06 mmRainLight Rain
10:59 AM27 °C25 °C89 %1010.5 hPa4 kmESE (120°)18.5 km/h35.2 km/h0.25 mmRainHeavy Rain
11:07 AM28 °C26 °C89 %1010.5 hPa11.3 kmESE (110°)22.2 km/h37 km/h0.51 mmRainLight Rain
11:54 AM29.4 °C26.1 °C82 %1009.1 hPa16.1 kmEast (100°)27.8 km/h40.7 km/h0.51 mmMostly Cloudy
12:54 PM30.6 °C25 °C72 %1008.8 hPa16.1 kmESE (110°)22.2 km/h38.9 km/hPartly Cloudy
1:54 PM30 °C25 °C74 %1008.8 hPa16.1 kmESE (110°)22.2 km/h35.2 km/hMostly Cloudy
2:38 PM31 °C25 °C70 %1009.5 hPa16.1 kmESE (110°)18.5 km/hMostly Cloudy
2:45 PM31 °C25 °C70 %1009.5 hPa16.1 kmESE (110°)27.8 km/h35.2 km/hScattered Clouds
2:54 PM29.4 °C23.3 °C69 %1008.8 hPa16.1 kmEast (100°)25.9 km/h40.7 km/hMostly Cloudy
3:05 PM29 °C24 °C74 %1009.5 hPa16.1 kmEast (90°)24.1 km/h37 km/hPartly Cloudy
3:54 PM30 °C23.9 °C70 %1008.1 hPa16.1 kmESE (110°)24.1 km/h33.3 km/hPartly Cloudy
4:54 PM30 °C24.4 °C72 %1008.5 hPa16.1 kmEast (100°)18.5 km/h31.5 km/hScattered Clouds
5:54 PM29.4 °C25 °C77 %1009.1 hPa16.1 kmEast (90°)18.5 km/hMostly Cloudy
6:23 PM28 °C24 °C79 %1010.2 hPa11.3 kmEast (80°)25.9 km/h40.7 km/h0 mmRainLight Rain
6:28 PM28 °C24 °C79 %1010.2 hPa12.9 kmEast (80°)24.1 km/h40.7 km/h0 mmRainLight Rain
6:54 PM27.2 °C23.9 °C82 %1009.5 hPa16.1 kmEast (100°)11.1 km/h0 mmMostly Cloudy
7:54 PM27.8 °C24.4 °C82 %1010.2 hPa16.1 kmEast (90°)7.4 km/hScattered Clouds
8:54 PM27.8 °C25 °C85 %1010.5 hPa16.1 kmEast (90°)9.3 km/hScattered Clouds
9:54 PM28.3 °C25.6 °C85 %1010.8 hPa16.1 kmEast (80°)9.3 km/hScattered Clouds
10:54 PM28.3 °C25.6 °C85 %1011.2 hPa16.1 kmEast (90°)7.4 km/hPartly Cloudy
11:54 PM28.3 °C25 °C82 %1010.5 hPa16.1 kmEast (80°)9.3 km/hPartly Cloudy
Hourly data recorded from PGUM, located 0 kilometers away from Dededo, Guam







STORIES FROM OUR PARTNERS